This is the latest recevied weather packets stored in our database for station/object PA0HHN. If no packets are shown the sender has not sent any weather packets the latest 10 day(s).
| Time | Temp. | Humidity | Pressure | Rain* | Wind** | Luminosity | Snow |
|---|---|---|---|---|---|---|---|
| 1777741201 | 23.89° C | 57% | 1008.6 hPa | - | - | - | - |
| 1777740302 | 23.89° C | 57% | 1008.8 hPa | - | - | - | - |
| 1777739400 | 23.89° C | 56% | 1009.1 hPa | - | - | - | - |
| 1777738502 | 23.89° C | 56% | 1009.3 hPa | - | - | - | - |
| 1777737601 | 23.89° C | 56% | 1009.4 hPa | - | - | - | - |
| 1777736701 | 23.89° C | 56% | 1009.3 hPa | - | - | - | - |
| 1777735802 | 22.78° C | 57% | 1009.5 hPa | - | - | - | - |
| 1777734901 | 23.89° C | 56% | 1009.8 hPa | - | - | - | - |
| 1777734001 | 22.78° C | 56% | 1009.7 hPa | - | - | - | - |
| 1777733102 | 23.89° C | 55% | 1010 hPa | - | - | - | - |
| 1777727701 | 23.89° C | 48% | 1010.2 hPa | - | - | - | - |
| 1777726800 | 25° C | 47% | 1010.4 hPa | - | - | - | - |
| 1777725902 | 25° C | 47% | 1010.6 hPa | - | - | - | - |
| 1777725001 | 25° C | 47% | 1010.8 hPa | - | - | - | - |
| 1777724102 | 23.89° C | 48% | 1010.8 hPa | - | - | - | - |
| 1777720501 | 23.89° C | 44% | 1011.2 hPa | - | - | - | - |
| 1777719601 | 23.89° C | 46% | 1011.6 hPa | - | - | - | - |
| 1777718702 | 23.89° C | 43% | 1011.7 hPa | - | - | - | - |
| 1777717801 | 23.89° C | 41% | 1011.9 hPa | - | - | - | - |
| 1777716902 | 22.78° C | 40% | 1011.6 hPa | - | - | - | - |
| 1777716002 | 22.22° C | 42% | 1012 hPa | - | - | - | - |
| 1777715101 | 22.22° C | 42% | 1012.2 hPa | - | - | - | - |
| 1777714202 | 22.78° C | 40% | 1012.2 hPa | - | - | - | - |
| 1777711502 | 22.22° C | 41% | 1012 hPa | - | - | - | - |
| 1777710602 | 22.22° C | 40% | 1012.1 hPa | - | - | - | - |
* Rain since midnight (hover to see other rain measurements)
** Current wind speed in m/s (hover to see current wind gust speed)